FW1232 Weather Reports


time (UTC)temp
C
wind
direction
speed
KPH
gust
KPH
rain 1hr
cm
rain 24hr
cm
rain mn
cm
humidity
%
barometer
mb
20260505124556 17 53 0.0 0.0 0.00 0.00 0.00 71 1012.3
20260505123105 17 0 0.0 3.2 0.00 0.00 0.00 70 1012.1
20260505121556 16 50 0.0 3.2 0.00 0.00 0.00 70 1012.1
20260505120100 16 0 0.0 0.0 0.00 0.00 0.00 75 1012.1
20260505114559 16 0 0.0 3.2 0.00 0.00 0.00 73 1011.8
20260505113101 16 0 1.6 4.8 0.00 0.00 0.00 72 1011.7
20260505111600 16 242 0.0 3.2 0.00 0.00 0.00 73 1011.5
20260505110105 16 0 1.6 9.7 0.00 0.00 0.00 71 1011.4
20260505101603 16 0 0.0 8.0 0.00 0.00 0.00 68 1010.9
20260505100059 17 157 0.0 8.0 0.00 0.00 0.00 68 1010.9
20260505094606 17 156 1.6 8.0 0.00 0.00 0.00 67 1011.0
20260505093057 17 156 3.2 9.7 0.00 0.00 0.00 67 1010.9
20260505091600 17 152 6.4 11.3 0.00 0.00 0.00 66 1010.9
20260505090101 17 143 4.8 11.3 0.00 0.00 0.00 66 1011.0
20260505084559 17 155 4.8 14.5 0.00 0.00 0.00 66 1011.0
20260505083100 17 137 6.4 12.9 0.00 0.00 0.00 65 1011.1
20260505081603 17 148 6.4 16.1 0.00 0.00 0.00 65 1011.1
20260505080058 17 140 6.4 12.9 0.00 0.00 0.00 65 1010.8
20260505074610 17 140 4.8 9.7 0.00 0.00 0.00 66 1010.7
20260505073107 17 136 4.8 11.3 0.00 0.00 0.00 65 1010.7
20260505071558 18 140 4.8 8.0 0.00 0.00 0.00 65 1010.8
20260505070057 18 0 3.2 9.7 0.00 0.00 0.00 64 1010.9
20260505064559 18 141 3.2 8.0 0.00 0.00 0.00 63 1010.8
20260505063100 18 142 4.8 8.0 0.00 0.00 0.00 60 1010.9
20260505061625 18 165 3.2 8.0 0.00 0.00 0.00 63 1011.0
20260505060059 19 170 1.6 8.0 0.00 0.00 0.00 62 1011.2
20260505054625 20 0 1.6 11.3 0.00 0.00 0.00 61 1011.1
20260505053059 20 171 3.2 11.3 0.00 0.00 0.00 59 1011.1
20260505051601 20 170 3.2 11.3 0.00 0.00 0.00 61 1010.9
20260505050103 20 181 8.0 14.5 0.00 0.00 0.00 58 1010.9
20260505041558 20 159 8.0 12.9 0.00 0.00 0.00 59 1010.4
20260505034600 20 146 4.8 12.9 0.00 0.00 0.00 58 1010.2
20260505033056 21 140 6.4 17.7 0.00 0.00 0.00 58 1010.1
20260505031601 21 169 4.8 14.5 0.00 0.00 0.00 56 1010.3
20260505024609 21 157 9.7 22.5 0.00 0.00 0.00 55 1009.7
20260505023057 22 162 9.7 19.3 0.00 0.00 0.00 56 1009.8
20260505021612 22 214 8.0 19.3 0.00 0.00 0.00 54 1009.9
20260505020100 22 192 12.9 24.1 0.00 0.00 0.00 53 1009.6
20260505014558 22 167 8.0 20.9 0.00 0.00 0.00 54 1009.7
20260505013057 22 186 8.0 17.7 0.00 0.00 0.00 54 1009.6
20260505011601 22 173 4.8 12.9 0.00 0.00 0.00 54 1009.6
20260505010105 23 131 6.4 19.3 0.00 0.00 0.00 53 1009.6
20260505004601 23 183 9.7 25.7 0.00 0.00 0.00 52 1009.7
20260505003100 23 158 9.7 27.4 0.00 0.00 0.00 51 1009.5
20260505001600 23 196 11.3 29.0 0.00 0.00 0.00 51 1009.5
20260505000058 24 204 11.3 25.7 0.00 0.00 0.00 48 1009.5
20260504234558 24 222 14.5 24.1 0.00 0.00 0.00 48 1009.6
20260504233102 25 210 14.5 22.5 0.00 0.00 0.00 49 1009.7
20260504231557 25 160 12.9 25.7 0.00 0.00 0.00 49 1009.8
20260504230101 25 230 14.5 30.6 0.00 0.00 0.00 48 1009.8
20260504224556 25 190 17.7 38.6 0.00 0.00 0.00 48 1009.8
20260504223103 25 161 12.9 32.2 0.00 0.00 0.00 47 1009.7
20260504221608 25 199 16.1 27.4 0.00 0.00 0.00 47 1009.6
20260504220135 25 182 16.1 32.2 0.00 0.00 0.00 47 1009.6
20260504214558 25 188 11.3 32.2 0.00 0.00 0.00 49 1009.7
20260504213123 25 200 17.7 32.2 0.00 0.00 0.00 48 1009.7
20260504211557 25 198 12.9 33.8 0.00 0.00 0.00 48 1009.8
20260504204611 25 178 11.3 27.4 0.00 0.00 0.00 49 1010.0
20260504203057 25 195 11.3 27.4 0.00 0.00 0.00 48 1010.0
20260504201608 25 220 9.7 20.9 0.00 0.00 0.00 50 1010.2
20260504200109 25 214 12.9 24.1 0.00 0.00 0.00 49 1010.4
20260504194559 25 239 14.5 29.0 0.00 0.00 0.00 51 1010.6
20260504193103 25 220 12.9 27.4 0.00 0.00 0.00 48 1010.9
20260504191606 25 240 14.5 30.6 0.00 0.00 0.00 52 1011.0
20260504190100 25 159 14.5 30.6 0.00 0.00 0.00 52 1011.2
20260504184601 25 232 6.4 30.6 0.00 0.00 0.00 53 1011.4
20260504183104 24 208 9.7 27.4 0.00 0.00 0.00 54 1011.4
20260504181614 23 190 12.9 27.4 0.00 0.00 0.00 54 1011.5
20260504180100 23 182 14.5 24.1 0.00 0.00 0.00 55 1011.7
20260504174556 23 225 16.1 29.0 0.00 0.00 0.00 55 1011.8
20260504173101 23 224 8.0 25.7 0.00 0.00 0.00 56 1012.0
20260504171606 22 189 14.5 27.4 0.00 0.00 0.00 56 1012.1
20260504170104 22 268 8.0 27.4 0.00 0.00 0.00 58 1012.4
20260504160106 20 168 11.3 24.1 0.00 0.00 0.00 60 1013.5